SL-3 DEB, 14209

Orbit data source: Space-Track

SL-3 DEB, 14209 is space debris in SSO originally from a launch on Sun, 24 Jul 1983 UTC launched from the Tyuratam Missile And Space Complex (TTMTR). Debris objects in space refer to the collection of defunct objects orbiting the Earth. Examples of debris include non-operational satellites, rocket bodies, and fragments generated from explosions, collisions, or faulty payload assembly.

Loading next visibility...
Identifier
14209, 1983-075C
Orbit
SSO
Country
Flag of CISCIS
Related business
Manufacturer
Unknown
Mission
Spacecraft
Bus & Motor
Unknown
Mass
Unknown
Launch date (UTC)
1983-07-24 (43 years ago)
Launch vehicle
Unknown
Launch site
Tyuratam Missile And Space Complex (TTMTR)
Object type
Payload
Rocket body
Debris
Shape & HBR
Unknown shape, 0.1 m
Radar Cross Section
Medium (>0.1 m² and <1 m²)

Expand to show TLE details & history
Last TLE update: 9 hours ago

TLE from 9 hours ago
0 SL-3 DEB
1 14209U 83075C   26267.03816036  .00013710  00000-0  21443-3 0  9998
2 14209  97.2131 257.4544 0014770  49.8218 310.4326 15.53756496369584
Epoch: 2026-09-24T00:54Z
TLE epoch observation values (Epoch: 2026-09-24T00:54:57.055Z)
Latitude
-0.00004°
Longitude
-119.164°
Altitude
402.42 km
Speed
7.673 km/s
True Right ascension
17h 09m 49s
True Declination
0° 00' 00"
Sunlit
Object was in daylight at epoch
Visualization orbit readout
Latitude
Unknown
Longitude
Unknown
Altitude
Unknown
Speed
Unknown
Apparent Right ascension
Unknown
Apparent Declination
Unknown
Sunlit
N/A
Visualization observer readout
Local Sidereal Time
03:32:50
Azimuth
Unknown
Elevation
Unknown
Doppler factor
Unknown
Orbital elements
Apogee altitude
412.698 km
Perigee altitude
392.667 km
Semi-major axis
6,780.819 km
Eccentricity
0.00148
Inclination
97.2131°
RAAN
257.4544°
Arg. of periapsis
49.8218°
True anomaly
310.30362°
Mean anomaly
310.4326°
Eccentric anomaly
310.36812°
Mean motion
3.88705 °/min
Orbital period
92.62 mins
BSTAR
0.00021443

Documentation

Showing up to 5 results
|